History for KNYNEWYO982

Hells Kitchen, New York, NY — Current Conditions
Daily Summary for November 12, 2018
  Current: High: Low: Average:
Temperature: 49.6°F 49.6°F 39.4°F 44.5°F
Dew Point: 37.2°F 37.2°F 25.2°F 29.9°F
Humidity: 62% 69% 42% 56%
Wind Speed: 0.4mph 7.8mph - 1.9mph
Wind Gust: 1.8mph 11.0mph - -
Wind: NE - - NW
Pressure: 30.32in 30.46in 30.32in -
Precipitation: 0.00in      
Solar Radiation: 0 watts/m^2      
UV Index: 0.0      
Statistics for the rest of the month
    High: Low: Average:
Temperature:   72.0°F 36.3°F 53.4°F
Dew Point:   64.4°F 16.0°F 41.8°F
Humidity:   99.0% 34.0% 67.2%
Wind Speed:   8.7mph from the West - 2.0mph
Wind Gust:   24.8mph from the West - -
Wind:   - - SW
Pressure:   30.58in 29.57in -
Precipitation:   2.74in    
KNYNEWYO982 Weather Graph
Tabular Data for November 12, 2018
Time Temp. Windchill Dew Point Pressure Wind Gust Humidity Rainfall Solar Radiation
00:04 42.8°F - 26.4°F 30.40in 1.1mph 52% 0.00in 0.00 watts/m^2
00:08 42.8°F - 26.4°F 30.40in 2.9mph 52% 0.00in 0.00 watts/m^2
00:12 42.8°F - 26.4°F 30.40in 2.9mph 52% 0.00in 0.00 watts/m^2
00:18 42.6°F - 26.2°F 30.40in 1.1mph 52% 0.00in 0.00 watts/m^2
00:24 42.6°F - 25.3°F 30.39in 0.0mph 50% 0.00in 0.00 watts/m^2
00:28 42.6°F - 25.3°F 30.39in 4.0mph 50% 0.00in 0.00 watts/m^2
00:34 42.6°F - 25.3°F 30.39in 0.0mph 50% 0.00in 0.00 watts/m^2
00:39 42.4°F - 25.2°F 30.39in 3.6mph 50% 0.00in 0.00 watts/m^2
00:43 42.4°F - 26.1°F 30.39in 3.4mph 52% 0.00in 0.00 watts/m^2
00:48 42.6°F - 26.2°F 30.39in 2.0mph 52% 0.00in 0.00 watts/m^2
00:53 42.6°F - 26.2°F 30.39in 3.6mph 52% 0.00in 0.00 watts/m^2
00:58 42.6°F - 26.2°F 30.39in 3.8mph 52% 0.00in 0.00 watts/m^2
01:02 42.6°F - 26.2°F 30.39in 2.9mph 52% 0.00in 0.00 watts/m^2
01:09 42.6°F - 26.6°F 30.39in 1.8mph 53% 0.00in 0.00 watts/m^2
01:13 42.8°F - 26.8°F 30.39in 3.6mph 53% 0.00in 0.00 watts/m^2
01:19 42.8°F - 26.8°F 30.39in 3.1mph 53% 0.00in 0.00 watts/m^2
01:26 42.8°F - 27.3°F 30.39in 4.5mph 54% 0.00in 0.00 watts/m^2
01:34 42.8°F - 27.7°F 30.40in 3.6mph 55% 0.00in 0.00 watts/m^2
01:39 42.6°F - 28.4°F 30.40in 2.0mph 57% 0.00in 0.00 watts/m^2
01:44 42.6°F - 28.4°F 30.40in 3.6mph 57% 0.00in 0.00 watts/m^2
01:49 42.6°F - 28.4°F 30.40in 3.1mph 57% 0.00in 0.00 watts/m^2
01:54 42.6°F - 27.5°F 30.40in 3.1mph 55% 0.00in 0.00 watts/m^2
01:59 42.6°F - 27.5°F 30.40in 4.3mph 55% 0.00in 0.00 watts/m^2
02:04 42.6°F 40.5°F 27.5°F 30.40in 5.6mph 55% 0.00in 0.00 watts/m^2
02:08 42.4°F - 27.3°F 30.40in 3.4mph 55% 0.00in 0.00 watts/m^2
02:14 42.4°F 41.0°F 28.2°F 30.40in 4.9mph 57% 0.00in 0.00 watts/m^2
02:18 42.3°F - 28.0°F 30.40in 5.4mph 57% 0.00in 0.00 watts/m^2
02:23 41.9°F - 28.2°F 30.40in 3.6mph 58% 0.00in 0.00 watts/m^2
02:28 41.9°F - 28.2°F 30.41in 4.3mph 58% 0.00in 0.00 watts/m^2
02:34 41.9°F - 28.6°F 30.41in 3.4mph 59% 0.00in 0.00 watts/m^2
02:38 41.7°F - 28.9°F 30.41in 4.3mph 60% 0.00in 0.00 watts/m^2
02:44 41.5°F - 29.5°F 30.41in 4.5mph 62% 0.00in 0.00 watts/m^2
02:48 41.4°F - 29.3°F 30.41in 3.6mph 62% 0.00in 0.00 watts/m^2
02:52 41.4°F - 29.3°F 30.41in 2.7mph 62% 0.00in 0.00 watts/m^2
02:58 41.2°F - 28.8°F 30.41in 5.8mph 61% 0.00in 0.00 watts/m^2
03:04 41.0°F - 28.6°F 30.41in 3.8mph 61% 0.00in 0.00 watts/m^2
03:09 41.0°F - 28.6°F 30.40in 4.5mph 61% 0.00in 0.00 watts/m^2
03:21 40.8°F 39.2°F 28.4°F 30.40in 4.3mph 61% 0.00in 0.00 watts/m^2
03:26 40.8°F 38.4°F 28.4°F 30.40in 4.7mph 61% 0.00in 0.00 watts/m^2
03:34 40.8°F - 28.4°F 30.41in 2.9mph 61% 0.00in 0.00 watts/m^2
03:37 40.6°F - 28.2°F 30.41in 3.1mph 61% 0.00in 0.00 watts/m^2
03:45 40.5°F - 28.4°F 30.41in 2.7mph 62% 0.00in 0.00 watts/m^2
03:50 40.5°F - 28.4°F 30.41in 1.8mph 62% 0.00in 0.00 watts/m^2
03:55 40.5°F - 28.4°F 30.41in 3.1mph 62% 0.00in 0.00 watts/m^2
04:00 40.5°F 38.8°F 28.4°F 30.41in 4.5mph 62% 0.00in 0.00 watts/m^2
04:08 40.5°F - 28.4°F 30.41in 3.8mph 62% 0.00in 0.00 watts/m^2
04:13 40.5°F 38.8°F 28.4°F 30.41in 4.7mph 62% 0.00in 0.00 watts/m^2
04:17 40.5°F - 28.4°F 30.41in 3.6mph 62% 0.00in 0.00 watts/m^2
04:21 40.5°F - 28.4°F 30.41in 2.9mph 62% 0.00in 0.00 watts/m^2
04:27 40.5°F - 28.4°F 30.41in 3.8mph 62% 0.00in 0.00 watts/m^2
04:34 40.5°F - 28.4°F 30.42in 2.5mph 62% 0.00in 0.00 watts/m^2
04:43 40.6°F - 28.6°F 30.41in 4.0mph 62% 0.00in 0.00 watts/m^2
04:49 40.8°F - 28.8°F 30.42in 3.8mph 62% 0.00in 0.00 watts/m^2
04:49 40.8°F - 28.8°F 30.42in 3.6mph 62% 0.00in 0.00 watts/m^2
04:58 41.0°F 39.4°F 28.9°F 30.42in 4.5mph 62% 0.00in 0.00 watts/m^2
05:07 41.0°F - 28.9°F 30.41in 3.6mph 62% 0.00in 0.00 watts/m^2
05:17 41.0°F - 28.9°F 30.42in 3.1mph 62% 0.00in 0.00 watts/m^2
05:24 41.0°F - 29.3°F 30.42in 4.5mph 63% 0.00in 0.00 watts/m^2
05:24 41.0°F - 29.3°F 30.42in 2.0mph 63% 0.00in 0.00 watts/m^2
05:29 41.0°F - 29.3°F 30.42in 2.7mph 63% 0.00in 0.00 watts/m^2
05:42 41.0°F 39.4°F 29.3°F 30.41in 4.3mph 63% 0.00in 0.00 watts/m^2
05:47 41.2°F - 29.5°F 30.40in 2.9mph 63% 0.00in 0.00 watts/m^2
05:52 41.2°F 39.3°F 29.5°F 30.40in 4.3mph 63% 0.00in 0.00 watts/m^2
05:54 41.2°F - 29.5°F 30.40in 4.3mph 63% 0.00in 0.00 watts/m^2
06:00 41.4°F - 29.7°F 30.41in 4.7mph 63% 0.00in 0.00 watts/m^2
06:08 41.2°F - 29.5°F 30.41in 5.4mph 63% 0.00in 0.00 watts/m^2
06:14 41.0°F - 29.3°F 30.41in 3.8mph 63% 0.00in 0.00 watts/m^2
06:17 41.0°F - 30.2°F 30.41in 4.3mph 65% 0.00in 0.00 watts/m^2
06:22 41.0°F - 29.3°F 30.41in 2.9mph 63% 0.00in 0.00 watts/m^2
06:29 41.0°F - 29.3°F 30.42in 2.5mph 63% 0.00in 1.00 watts/m^2
06:32 41.0°F - 30.2°F 30.42in 4.3mph 65% 0.00in 2.00 watts/m^2
06:37 40.8°F 38.4°F 30.0°F 30.42in 5.4mph 65% 0.00in 3.00 watts/m^2
06:42 40.5°F 37.3°F 29.7°F 30.42in 6.0mph 65% 0.00in 7.00 watts/m^2
06:47 40.1°F - 29.7°F 30.42in 3.6mph 66% 0.00in 10.00 watts/m^2
06:51 39.7°F 37.4°F 29.7°F 30.42in 4.7mph 67% 0.00in 13.00 watts/m^2
06:57 39.6°F 36.9°F 29.5°F 30.42in 5.8mph 67% 0.00in 19.00 watts/m^2
07:01 39.4°F 36.4°F 29.3°F 30.42in 6.0mph 67% 0.00in 21.00 watts/m^2
07:09 39.4°F 37.2°F 29.7°F 30.42in 4.7mph 68% 0.00in 29.00 watts/m^2
07:12 39.4°F - 29.7°F 30.42in 3.8mph 68% 0.00in 31.00 watts/m^2
07:17 39.4°F - 29.7°F 30.43in 3.4mph 68% 0.00in 35.00 watts/m^2
07:24 39.4°F 36.4°F 30.0°F 30.43in 5.6mph 69% 0.00in 46.00 watts/m^2
07:29 39.4°F - 29.7°F 30.44in 5.1mph 68% 0.00in 49.00 watts/m^2
07:34 39.4°F 36.8°F 29.7°F 30.44in 5.6mph 68% 0.00in 47.00 watts/m^2
07:40 39.4°F 37.2°F 29.7°F 30.44in 4.7mph 68% 0.00in 50.00 watts/m^2
07:47 39.4°F - 29.7°F 30.44in 4.3mph 68% 0.00in 56.00 watts/m^2
07:52 39.6°F 37.8°F 29.8°F 30.45in 4.3mph 68% 0.00in 58.00 watts/m^2
07:59 39.6°F - 29.5°F 30.45in 4.0mph 67% 0.00in 64.00 watts/m^2
08:04 39.6°F 37.3°F 29.5°F 30.45in 5.6mph 67% 0.00in 121.00 watts/m^2
08:08 39.7°F - 29.3°F 30.45in 3.6mph 66% 0.00in 124.00 watts/m^2
08:11 39.7°F - 29.3°F 30.45in 4.5mph 66% 0.00in 132.00 watts/m^2
08:16 40.1°F 38.0°F 29.7°F 30.45in 4.9mph 66% 0.00in 73.00 watts/m^2
08:23 40.1°F - 29.3°F 30.45in 6.0mph 65% 0.00in 77.00 watts/m^2
08:28 40.3°F - 29.5°F 30.45in 4.5mph 65% 0.00in 76.00 watts/m^2
08:34 40.5°F - 29.7°F 30.46in 3.8mph 65% 0.00in 77.00 watts/m^2
08:37 40.5°F - 29.7°F 30.46in 3.1mph 65% 0.00in 78.00 watts/m^2
08:43 40.3°F - 29.5°F 30.45in 2.9mph 65% 0.00in 88.00 watts/m^2
08:48 40.5°F - 29.7°F 30.45in 4.0mph 65% 0.00in 104.00 watts/m^2
08:53 40.6°F - 29.8°F 30.46in 3.6mph 65% 0.00in 93.00 watts/m^2
08:58 40.6°F - 29.8°F 30.46in 6.7mph 65% 0.00in 95.00 watts/m^2
09:04 40.6°F 37.8°F 29.8°F 30.46in 6.7mph 65% 0.00in 110.00 watts/m^2
09:06 40.8°F - 30.0°F 30.46in 5.1mph 65% 0.00in 108.00 watts/m^2
09:14 41.2°F - 30.4°F 30.45in 4.0mph 65% 0.00in 108.00 watts/m^2
09:18 41.4°F - 29.7°F 30.45in 2.9mph 63% 0.00in 265.00 watts/m^2
09:23 41.9°F - 29.8°F 30.45in 4.3mph 62% 0.00in 266.00 watts/m^2
09:27 42.1°F - 30.0°F 30.45in 4.3mph 62% 0.00in 277.00 watts/m^2
09:34 42.6°F - 30.6°F 30.45in 4.0mph 62% 0.00in 289.00 watts/m^2
09:42 43.0°F 41.7°F 30.4°F 30.45in 4.7mph 61% 0.00in 296.00 watts/m^2
09:49 43.2°F 41.6°F 29.3°F 30.45in 5.8mph 58% 0.00in 253.00 watts/m^2
09:59 43.7°F - 28.9°F 30.44in 2.2mph 56% 0.00in 279.00 watts/m^2
10:09 44.2°F - 28.2°F 30.44in 3.4mph 53% 0.00in 358.00 watts/m^2
10:10 44.2°F - 28.2°F 30.44in 2.7mph 53% 0.00in 349.00 watts/m^2
10:28 45.0°F - 27.9°F 30.44in 4.3mph 51% 0.00in 128.00 watts/m^2
10:43 45.5°F - 28.4°F 30.45in 6.0mph 51% 0.00in 375.00 watts/m^2
10:49 45.7°F - 27.7°F 30.45in 3.4mph 49% 0.00in 352.00 watts/m^2
10:51 45.9°F - 27.7°F 30.45in 3.4mph 49% 0.00in 382.00 watts/m^2
10:59 46.2°F - 27.7°F 30.44in 3.6mph 48% 0.00in 361.00 watts/m^2
11:03 46.2°F 45.0°F 27.1°F 30.44in 6.0mph 47% 0.00in 308.00 watts/m^2
11:14 46.4°F - 27.3°F 30.44in 6.3mph 47% 0.00in 258.00 watts/m^2
11:26 46.8°F - 27.1°F 30.44in 2.9mph 46% 0.00in 221.00 watts/m^2
11:31 46.8°F - 26.1°F 30.43in 4.3mph 44% 0.00in 233.00 watts/m^2
11:35 46.9°F - 27.1°F 30.43in 3.8mph 46% 0.00in 405.00 watts/m^2
11:44 46.9°F - 26.1°F 30.42in 5.4mph 44% 0.00in 244.00 watts/m^2
11:45 47.1°F - 26.2°F 30.42in 1.8mph 44% 0.00in 244.00 watts/m^2
11:51 47.1°F - 25.7°F 30.42in 7.6mph 43% 0.00in 265.00 watts/m^2
12:03 47.1°F - 25.7°F 30.41in 5.4mph 43% 0.00in 300.00 watts/m^2
12:09 47.3°F - 25.9°F 30.41in 7.2mph 43% 0.00in 315.00 watts/m^2
12:11 47.5°F - 26.6°F 30.41in 3.8mph 44% 0.00in 287.00 watts/m^2
12:19 47.5°F - 26.6°F 30.40in 7.8mph 44% 0.00in 273.00 watts/m^2
12:23 47.7°F - 26.8°F 30.40in 3.6mph 44% 0.00in 312.00 watts/m^2
12:30 47.8°F - 27.0°F 30.39in 4.5mph 44% 0.00in 322.00 watts/m^2
12:36 47.8°F - 27.0°F 30.39in 4.7mph 44% 0.00in 292.00 watts/m^2
12:41 47.8°F - 28.0°F 30.39in 4.5mph 46% 0.00in 317.00 watts/m^2
12:48 48.0°F - 28.2°F 30.38in 5.1mph 46% 0.00in 350.00 watts/m^2
12:52 48.0°F - 28.2°F 30.38in 3.8mph 46% 0.00in 326.00 watts/m^2
12:56 48.0°F - 28.2°F 30.37in 6.3mph 46% 0.00in 328.00 watts/m^2
13:03 47.8°F - 28.0°F 30.38in 3.4mph 46% 0.00in 305.00 watts/m^2
13:13 48.0°F - 27.1°F 30.37in 4.0mph 44% 0.00in 291.00 watts/m^2
13:20 48.0°F - 28.2°F 30.37in 3.4mph 46% 0.00in 307.00 watts/m^2
13:27 48.4°F - 27.5°F 30.37in 6.0mph 44% 0.00in 298.00 watts/m^2
13:38 48.4°F - 27.0°F 30.37in 3.8mph 43% 0.00in 320.00 watts/m^2
13:41 48.6°F - 27.1°F 30.37in 6.7mph 43% 0.00in 338.00 watts/m^2
13:48 48.6°F - 27.1°F 30.36in 4.7mph 43% 0.00in 321.00 watts/m^2
13:52 48.6°F - 26.4°F 30.36in 7.6mph 42% 0.00in 315.00 watts/m^2
14:03 48.6°F - 26.4°F 30.37in 2.7mph 42% 0.00in 217.00 watts/m^2
14:12 48.4°F - 27.0°F 30.37in 3.6mph 43% 0.00in 191.00 watts/m^2
14:19 48.6°F - 27.1°F 30.37in 6.5mph 43% 0.00in 188.00 watts/m^2
14:24 48.7°F - 27.9°F 30.36in 2.2mph 44% 0.00in 184.00 watts/m^2
14:29 48.7°F - 27.1°F 30.36in 5.1mph 43% 0.00in 223.00 watts/m^2
14:34 48.7°F - 27.1°F 30.36in 4.9mph 43% 0.00in 202.00 watts/m^2
14:39 48.9°F - 27.3°F 30.36in 2.7mph 43% 0.00in 178.00 watts/m^2
14:44 49.1°F - 27.5°F 30.36in 6.7mph 43% 0.00in 165.00 watts/m^2
14:49 48.9°F - 27.3°F 30.36in 2.0mph 43% 0.00in 158.00 watts/m^2
14:54 48.9°F - 27.3°F 30.36in 11.0mph 43% 0.00in 149.00 watts/m^2
14:59 48.9°F - 27.3°F 30.36in 4.5mph 43% 0.00in 137.00 watts/m^2
15:04 48.9°F - 27.3°F 30.36in 5.1mph 43% 0.00in 128.00 watts/m^2
15:09 48.9°F - 27.3°F 30.35in 1.1mph 43% 0.00in 125.00 watts/m^2
15:14 48.7°F - 27.1°F 30.36in 3.8mph 43% 0.00in 116.00 watts/m^2
15:19 48.7°F - 27.1°F 30.36in 4.3mph 43% 0.00in 96.00 watts/m^2
15:24 48.7°F - 27.1°F 30.36in 4.7mph 43% 0.00in 89.00 watts/m^2
15:29 48.7°F - 27.1°F 30.36in 5.1mph 43% 0.00in 92.00 watts/m^2
15:34 48.7°F - 27.1°F 30.36in 3.8mph 43% 0.00in 83.00 watts/m^2
15:39 48.7°F - 27.9°F 30.36in 4.7mph 44% 0.00in 72.00 watts/m^2
15:44 48.9°F - 28.0°F 30.36in 3.1mph 44% 0.00in 65.00 watts/m^2
15:49 48.9°F - 28.0°F 30.35in 4.7mph 44% 0.00in 59.00 watts/m^2
15:54 48.7°F - 27.9°F 30.35in 2.0mph 44% 0.00in 57.00 watts/m^2
15:59 48.9°F - 29.1°F 30.36in 3.6mph 46% 0.00in 47.00 watts/m^2
16:04 48.7°F - 28.9°F 30.37in 6.5mph 46% 0.00in 30.00 watts/m^2
16:09 48.7°F - 28.9°F 30.37in 4.0mph 46% 0.00in 24.00 watts/m^2
16:14 48.7°F - 29.5°F 30.37in 3.4mph 47% 0.00in 20.00 watts/m^2
16:19 48.6°F - 29.3°F 30.37in 4.3mph 47% 0.00in 14.00 watts/m^2
16:24 48.7°F - 29.8°F 30.37in 2.7mph 48% 0.00in 10.00 watts/m^2
16:29 48.7°F - 29.8°F 30.37in 3.6mph 48% 0.00in 7.00 watts/m^2
16:34 48.7°F - 29.8°F 30.37in 3.8mph 48% 0.00in 4.00 watts/m^2
16:39 48.7°F - 30.4°F 30.37in 3.1mph 49% 0.00in 2.00 watts/m^2
16:44 48.7°F - 30.4°F 30.37in 2.7mph 49% 0.00in 1.00 watts/m^2
16:49 48.6°F - 30.2°F 30.37in 0.0mph 49% 0.00in 0.00 watts/m^2
16:54 48.6°F - 30.2°F 30.37in 4.0mph 49% 0.00in 0.00 watts/m^2
16:59 48.6°F - 31.3°F 30.37in 4.3mph 51% 0.00in 0.00 watts/m^2
17:04 48.6°F - 32.2°F 30.37in 2.9mph 53% 0.00in 0.00 watts/m^2
17:09 48.6°F - 32.2°F 30.37in 3.6mph 53% 0.00in 0.00 watts/m^2
17:14 48.6°F - 31.6°F 30.36in 2.7mph 52% 0.00in 0.00 watts/m^2
17:19 48.6°F - 31.6°F 30.36in 2.2mph 52% 0.00in 0.00 watts/m^2
17:24 48.6°F - 32.2°F 30.37in 2.5mph 53% 0.00in 0.00 watts/m^2
17:29 48.6°F - 32.2°F 30.37in 5.8mph 53% 0.00in 0.00 watts/m^2
17:34 48.4°F - 32.5°F 30.36in 5.6mph 54% 0.00in 0.00 watts/m^2
17:39 48.4°F - 33.4°F 30.36in 3.1mph 56% 0.00in 0.00 watts/m^2
17:44 48.6°F - 33.6°F 30.36in 4.7mph 56% 0.00in 0.00 watts/m^2
17:49 48.6°F - 33.6°F 30.36in 4.7mph 56% 0.00in 0.00 watts/m^2
17:54 48.6°F - 34.0°F 30.36in 6.7mph 57% 0.00in 0.00 watts/m^2
17:59 48.6°F - 34.0°F 30.36in 4.7mph 57% 0.00in 0.00 watts/m^2
18:04 48.6°F - 34.0°F 30.37in 3.1mph 57% 0.00in 0.00 watts/m^2
18:09 48.6°F - 34.0°F 30.37in 3.1mph 57% 0.00in 0.00 watts/m^2
18:14 48.6°F - 34.5°F 30.37in 7.6mph 58% 0.00in 0.00 watts/m^2
18:19 48.4°F - 34.7°F 30.36in 7.8mph 59% 0.00in 0.00 watts/m^2
18:24 48.4°F - 34.7°F 30.37in 2.9mph 59% 0.00in 0.00 watts/m^2
18:29 48.4°F - 34.7°F 30.36in 3.4mph 59% 0.00in 0.00 watts/m^2
18:34 48.4°F - 34.7°F 30.36in 2.9mph 59% 0.00in 0.00 watts/m^2
18:39 48.6°F - 35.8°F 30.36in 2.7mph 61% 0.00in 0.00 watts/m^2
18:44 48.6°F - 35.8°F 30.35in 2.0mph 61% 0.00in 0.00 watts/m^2
18:49 48.7°F - 36.0°F 30.35in 4.7mph 61% 0.00in 0.00 watts/m^2
18:54 48.7°F - 36.0°F 30.35in 1.8mph 61% 0.00in 0.00 watts/m^2
18:59 48.7°F - 36.0°F 30.35in 8.3mph 61% 0.00in 0.00 watts/m^2
19:04 48.6°F - 35.8°F 30.35in 2.5mph 61% 0.00in 0.00 watts/m^2
19:09 48.6°F - 36.1°F 30.35in 4.9mph 62% 0.00in 0.00 watts/m^2
19:14 48.6°F - 36.1°F 30.35in 2.9mph 62% 0.00in 0.00 watts/m^2
19:19 48.6°F - 36.1°F 30.34in 3.8mph 62% 0.00in 0.00 watts/m^2
19:24 48.6°F - 36.1°F 30.34in 3.1mph 62% 0.00in 0.00 watts/m^2
19:29 48.7°F - 36.3°F 30.34in 4.0mph 62% 0.00in 0.00 watts/m^2
19:34 48.7°F - 36.3°F 30.34in 4.5mph 62% 0.00in 0.00 watts/m^2
19:39 48.7°F - 36.3°F 30.34in 2.0mph 62% 0.00in 0.00 watts/m^2
19:44 48.7°F - 36.3°F 30.35in 2.5mph 62% 0.00in 0.00 watts/m^2
19:49 48.7°F - 36.3°F 30.35in 7.4mph 62% 0.00in 0.00 watts/m^2
19:54 48.9°F - 36.5°F 30.35in 6.3mph 62% 0.00in 0.00 watts/m^2
19:59 48.9°F - 36.5°F 30.35in 1.3mph 62% 0.00in 0.00 watts/m^2
20:04 48.9°F - 36.5°F 30.35in 4.3mph 62% 0.00in 0.00 watts/m^2
20:09 48.9°F - 36.5°F 30.35in 1.6mph 62% 0.00in 0.00 watts/m^2
20:14 48.9°F - 36.5°F 30.35in 2.0mph 62% 0.00in 0.00 watts/m^2
20:19 49.1°F - 36.7°F 30.35in 2.7mph 62% 0.00in 0.00 watts/m^2
20:24 49.1°F - 36.7°F 30.35in 4.9mph 62% 0.00in 0.00 watts/m^2
20:29 49.1°F - 36.7°F 30.35in 3.6mph 62% 0.00in 0.00 watts/m^2
20:34 49.3°F - 36.9°F 30.35in 2.2mph 62% 0.00in 0.00 watts/m^2
20:39 49.3°F - 36.9°F 30.35in 2.5mph 62% 0.00in 0.00 watts/m^2
20:44 49.3°F - 36.9°F 30.34in 2.7mph 62% 0.00in 0.00 watts/m^2
20:49 49.3°F - 36.9°F 30.34in 4.0mph 62% 0.00in 0.00 watts/m^2
20:54 49.5°F - 37.0°F 30.34in 1.8mph 62% 0.00in 0.00 watts/m^2
20:59 49.5°F - 37.0°F 30.33in 3.4mph 62% 0.00in 0.00 watts/m^2
21:04 49.5°F - 37.0°F 30.33in 6.7mph 62% 0.00in 0.00 watts/m^2
21:09 49.5°F - 37.0°F 30.33in 3.4mph 62% 0.00in 0.00 watts/m^2
21:14 49.6°F - 37.2°F 30.32in 2.7mph 62% 0.00in 0.00 watts/m^2
Comma Delimited File
Powered by Weather Underground, Inc.